Regional Weather Roundup
Issued by NWS

Home | Current Version | Previous Version | Text Only | Print | Product List | Glossary Off
Versions: 1 2 3 4 5 6 7 8 9 10 11 12 13 14 15 16 17 18 19 20 21 22 23 24 25 26 27 28 29 30 31 32 33 34 35 36 37 38 39 40 41 42 43 44 45 46 47 48 49 50

000
ASUS45 KSLC 251210
RWRUT

UTAH REGIONAL WEATHER ROUNDUP
NATIONAL WEATHER SERVICE SALT LAKE CITY UT
600 AM MDT SAT APR 25 2015

UTZ001>011-023>025-251300-

NORTHERN UTAH

CITY           SKY/WX    TMP DP  RH WIND       PRES   REMARKS
BRIGHAM CITY   CLOUDY    43  40  88 E3        29.83S
HILL AFB       MOCLDY    41  40  96 S6        29.82F
LOGAN          CLOUDY    42  38  85 SW3       29.83R
OGDEN          MOCLDY    42  38  85 S7        29.82S
PROVO AIRPORT  PTCLDY    39  36  87 NE3       29.83S
SALT LAKE CITY MOCLDY    43  39  86 E3        29.83S
VERNAL         CLOUDY    44  36  73 CALM      29.78R
WENDOVER       CLOUDY    45  34  65 CALM      29.82S
HEBER CITY     PTCLDY    34  32  93 CALM      29.83S
WEST JORDAN    PTCLDY    39  39 100 CALM      29.84F

$$

UTZ012>022-026-027-251300-

SOUTHERN/CENTRAL UTAH

CITY           SKY/WX    TMP DP  RH WIND       PRES   REMARKS
BLANDING       CLOUDY    46  37  69 S9        29.95R
BRYCE CANYON   MOCLDY    31  29  92 CALM      29.90F
CEDAR CITY     RAIN      42  39  89 E7        29.84F FOG
DELTA          MOCLDY    44  42  93 S7        29.81S
HANKSVILLE     CLOUDY    46  41  81 S3        29.83S
MILFORD        CLOUDY    42  30  62 S12       29.81F
MOAB/CYNLANDS  LGT RAIN  46  44  93 NW13      29.81R
PRICE          CLOUDY    42  34  73 N5        29.80F
ST GEORGE      CLOUDY    52  45  76 S5        29.83S
KANAB          CLOUDY    45  43  93 CALM      29.90S

$$

REGIONAL REPORTS     COLORADO/ARIZONA

CITY           SKY/WX    TMP DP  RH WIND       PRES   REMARKS
CRAIG, CO      CLOUDY    44  36  73 SW7       29.82R
GRAND JUNCTION CLOUDY    48  34  58 E9        29.79S
RIFLE          CLOUDY    40  34  79 NE6       29.83R
MONTROSE       CLOUDY    47  34  60 SE8       29.86S
CORTEZ         LGT RAIN  46  40  79 SW7       29.93R
PAGE, AZ       CLOUDY    53  40  61 NW8       29.85S
GRAND CANYON   CLOUDY    41  36  82 S7        29.95S
KINGMAN        CLEAR     46  38  73 SE9       29.85S
FLAGSTAFF      CLOUDY    40  38  93 SW9       29.96F WCI  34

$$

REGIONAL REPORTS    NEVADA/IDAHO/WYOMING

CITY           SKY/WX    TMP DP  RH WIND       PRES   REMARKS
LAS VEGAS, NV  MOCLDY    59  36  42 S15       29.73S
ELY            CLEAR     34  32  92 S9        29.83S WCI  27
ELKO           MOCLDY    36  33  89 CALM      29.78F
POCATELLO, ID  PTCLDY    41  32  70 SW18      29.80S
BURLEY         CLOUDY    37  30  75 SW12      29.79R WCI  29
EVANSTON, WY   PTCLDY    32  32 100 SW10      29.84R WCI  24
ROCK SPRINGS   CLOUDY    35  31  85 W21       29.80R WCI  24

$$


USA.gov is the U.S. government's official web portal to all federal, state and local government web resources and services.